Regional Weather Roundup
Issued by NWS

Home | Current Version | Previous Version | Graphics & Text | Print | Product List | Glossary Off
Versions: 1 2 3 4 5 6 7 8 9 10 11 12 13 14 15 16 17 18 19 20 21 22 23 24 25 26 27 28 29 30 31 32 33 34 35 36 37 38 39 40 41 42 43 44 45 46 47 48 49 50

000
ASUS43 KTOP 292008
RWRKS

WEATHER ROUNDUP FOR KANSAS
NATIONAL WEATHER SERVICE GOODLAND KS
300 PM CDT FRI MAY 29 2015

NOTE:  "FAIR" INDICATES FEW OR NO CLOUDS BELOW 12,000 FEET WITH NO
SIGNIFICANT WEATHER AND/OR OBSTRUCTIONS TO VISIBILITY.

KSZ001>006-013>018-027>032-041>047-292100-
NORTHWEST KANSAS

CITY           SKY/WX    TMP DP  RH WIND       PRES   REMARKS
GOODLAND       MOSUNNY   73  52  47 N13G22    30.08F
HAYS           PTSUNNY   75  57  53 N9        30.00F
HILL CITY      MOSUNNY   78  53  41 N6        30.01F
RUSSELL        PTSUNNY   76  60  57 VRB6      29.97F
$$

KSZ061>065-074>080-084>089-292100-
SOUTHWEST KANSAS

CITY           SKY/WX    TMP DP  RH WIND       PRES   REMARKS
DODGE CITY     MOSUNNY   77  55  46 NW9G20    30.02F
ELKHART          N/A     74  53  48 NE10        N/A
GARDEN CITY    MOSUNNY   74  54  49 N10G22    30.04F
GREAT BEND     PTSUNNY   75  55  50 CALM      29.98F
LIBERAL        MOSUNNY   75  57  53 N12       30.06S
PRATT          PTSUNNY   75  57  53 NE3       30.00F
$$

KSZ066>073-081>083-090>101-292100-
SOUTHEAST KANSAS

CITY           SKY/WX    TMP DP  RH WIND       PRES   REMARKS
CHANUTE        LGT RAIN  69  67  93 SE6       29.99F
COFFEYVILLE    RAIN      69  68  96 S5        29.99F FOG
HUTCHINSON     CLOUDY    79  62  56 CALM      29.96F
MEDICINE LODGE   N/A     80  59  48 N6        29.95F
NEWTON         CLOUDY    75  63  64 S3        29.99F
PARSONS        RAIN      69  67  93 S3        30.00F
WICHITA INTL   CLOUDY    77  63  61 CALM      29.96F
WICHITA JABRA  CLOUDY    75  63  66 CALM      29.97F
WICHITA MCCONL CLOUDY    75  64  68 VRB2      29.97F
WINFIELD       CLOUDY    74  64  71 E5        29.97F
$$

KSZ007>012-019>026-033>040-048>060-102>105-292100-
NORTHEAST KANSAS

CITY           SKY/WX    TMP DP  RH WIND       PRES   REMARKS
CONCORDIA      PTSUNNY   75  60  59 SW3       29.96F
EMPORIA        CLOUDY    72  66  81 S12       29.98F
LAWRENCE       LGT RAIN  69  66  90 S9        29.97F
MANHATTAN      CLOUDY    75  67  76 S8        29.95F
MARYSVILLE     CLOUDY    73  64  73 S8        29.95F
OLATHE IND     LGT RAIN  68  66  93 S3        30.00F FOG
OLATHE EXE     LGT RAIN  68  66  93 SW5       29.99F
SALINA         CLOUDY    78  60  53 W6        29.96F
TOPEKA BILLARD CLOUDY    70  67  90 S10       29.97F
TOPEKA FORBES  CLOUDY    70  65  84 S8        29.98F
$$



USA.gov is the U.S. government's official web portal to all federal, state and local government web resources and services.